TimeMDT,TemperatureF,Dew PointF,Humidity,Sea Level PressureIn,VisibilityMPH,Wind Direction,Wind SpeedMPH,Gust SpeedMPH,PrecipitationIn,Events,Conditions,WindDirDegrees,DateUTC
12:53 AM,39.9,19.0,43,30.04,10.0,NE,3.5,-,N/A,,Clear,40,2012-09-20 06:53:00
1:53 AM,39.0,19.9,46,30.04,10.0,Calm,Calm,-,N/A,,Clear,0,2012-09-20 07:53:00
2:53 AM,35.1,19.9,54,30.05,10.0,Calm,Calm,-,N/A,,Clear,0,2012-09-20 08:53:00
3:53 AM,30.0,19.9,66,30.07,10.0,Calm,Calm,-,N/A,,Clear,0,2012-09-20 09:53:00
4:53 AM,33.1,19.9,59,30.04,10.0,Calm,Calm,-,N/A,,Clear,0,2012-09-20 10:53:00
5:53 AM,34.0,19.0,54,30.06,10.0,Calm,Calm,-,N/A,,Clear,0,2012-09-20 11:53:00
6:53 AM,33.1,19.0,56,30.10,10.0,Calm,Calm,-,N/A,,Clear,0,2012-09-20 12:53:00
7:53 AM,36.0,19.9,52,30.12,10.0,Calm,Calm,-,N/A,,Clear,0,2012-09-20 13:53:00
8:53 AM,44.1,25.0,47,30.09,10.0,Calm,Calm,-,N/A,,Clear,0,2012-09-20 14:53:00
9:53 AM,52.0,23.0,32,30.06,10.0,Calm,Calm,-,N/A,,Clear,0,2012-09-20 15:53:00
10:53 AM,57.0,14.0,18,30.07,10.0,North,17.3,24.2,N/A,,Clear,10,2012-09-20 16:53:00
11:53 AM,57.9,12.0,16,30.06,10.0,NNE,12.7,23.0,N/A,,Clear,20,2012-09-20 17:53:00
12:53 PM,61.0,12.9,15,30.01,10.0,North,6.9,-,N/A,,Clear,350,2012-09-20 18:53:00
1:53 PM,62.1,12.0,14,29.99,10.0,NNW,15.0,18.4,N/A,,Clear,340,2012-09-20 19:53:00
2:53 PM,61.0,10.0,13,30.02,10.0,West,10.4,-,N/A,,Mostly Cloudy,260,2012-09-20 20:53:00
3:53 PM,64.0,10.9,13,30.02,10.0,North,8.1,17.3,N/A,,Partly Cloudy,360,2012-09-20 21:53:00
4:53 PM,60.1,8.1,13,30.01,10.0,Calm,Calm,-,N/A,,Partly Cloudy,0,2012-09-20 22:53:00
5:53 PM,61.0,10.9,14,30.01,10.0,North,8.1,-,N/A,,Clear,360,2012-09-20 23:53:00
6:53 PM,57.0,12.0,17,30.06,10.0,North,10.4,-,N/A,,Clear,360,2012-09-21 00:53:00
7:53 PM,48.0,16.0,28,30.12,10.0,NE,6.9,-,N/A,,Clear,40,2012-09-21 01:53:00
8:53 PM,45.0,17.1,33,30.09,10.0,NE,8.1,-,N/A,,Clear,50,2012-09-21 02:53:00
9:53 PM,43.0,18.0,37,30.06,10.0,NNW,4.6,-,N/A,,Clear,330,2012-09-21 03:53:00
10:53 PM,41.0,17.1,38,30.06,10.0,Calm,Calm,-,N/A,,Clear,0,2012-09-21 04:53:00
11:53 PM,39.9,18.0,41,30.06,10.0,ENE,6.9,-,N/A,,Clear,60,2012-09-21 05:53:00